Home > Weather > Gütersloh > Past weeks

Flag for Germany Weather for the Past 2 Weeks in Gütersloh, North Rhine-Westphalia, Germany

Now
52 °F

Sunny.


Feels Like: 49 °F
Forecast: 41 / 53 °F
Wind: 9 mph from South

Location: Paderborn / Lippstadt

Current Time: Apr 29, 2016 at 8:31:42 PM

Latest Report: Apr 29, 2016 at 7:50 PM


Visibility: 10 mi

Pressure: 29.98 "Hg

Humidity: 41%

Dew Point: 28 °F

Location of GüterslohLocation

Historic Weather in Gütersloh — Graph

°F

Gütersloh Temperature Yesterday

Maximum temperature yesterday: 48 °F (at 4:50 PM)
Minimum temperature yesterday: 36 °F (at 1:20 AM)
Average temperature yesterday: 41 °F

High & Low Weather Summary for the Past Weeks

 TemperatureHumidityPressure
High63 °F (Apr 21, 2:50 PM)100% (Apr 15, 5:50 AM)30.45 "Hg (Apr 15, 5:50 AM)
Low32 °F (Apr 24, 4:20 PM)30% (Apr 21, 3:50 PM)29.45 "Hg (Apr 26, 10:50 AM)
Average44 °F75%29.91 "Hg
* Reported Apr 14 7:20 PM — Apr 29 7:20 PM, Gütersloh, Weather by CustomWeather, © 2016

Note: Actual official high and low records may vary slightly from our data, if they occured in-between our weather recording intervals... More about our weather records

Advertising

Gütersloh Weather History for the Previous 24 Hours

Scroll right to see more
 ConditionsComfort  
Time TempWeatherWind HumidityBarometerVisibility
7:20 PM
Fri, Apr 29
52 °FSunny.14 mph41%29.98 "Hg10 mi
6:50 PM54 °FSunny.14 mph38%29.95 "Hg10 mi
6:20 PM54 °FSunny.16 mph41%29.98 "Hg10 mi
5:50 PM54 °FPassing clouds.17 mph41%29.95 "HgN/A
5:20 PM54 °FSunny.15 mph38%29.98 "Hg10 mi
4:50 PM54 °FSunny.20 mph38%29.95 "Hg10 mi
4:20 PM54 °FSunny.16 mph38%29.95 "Hg10 mi
3:50 PM55 °FPassing clouds.20 mph38%29.95 "HgN/A
3:20 PM55 °FSunny.14 mph38%29.95 "Hg10 mi
2:50 PM55 °FSunny.16 mph38%29.95 "Hg10 mi
2:20 PM54 °FSunny.16 mph41%29.95 "Hg10 mi
1:50 PM52 °FSunny.18 mph41%29.95 "Hg10 mi
1:20 PM52 °FSunny.20 mph41%29.95 "Hg10 mi
12:50 PM54 °FSunny.20 mph38%29.95 "Hg10 mi
12:20 PM54 °FPassing clouds.18 mph44%29.95 "HgN/A
11:50 AM52 °FPassing clouds.21 mph44%29.95 "HgN/A
11:20 AM52 °FPassing clouds.18 mph41%29.95 "HgN/A
10:50 AM50 °FSunny.18 mph43%29.95 "Hg10 mi
9:50 AM48 °FPassing clouds.13 mph54%29.95 "HgN/A
9:20 AM48 °FSunny.12 mph54%29.95 "Hg10 mi
8:50 AM46 °FSunny.13 mph57%29.95 "Hg10 mi
8:20 AM43 °FSunny.13 mph66%29.95 "Hg10 mi
7:50 AM43 °FSunny.10 mph66%29.95 "Hg10 mi
7:20 AM41 °FSunny.10 mph70%29.95 "Hg10 mi
6:50 AM39 °FClear.10 mph75%29.95 "Hg10 mi
6:20 AM39 °FClear.12 mph81%29.95 "Hg10 mi
5:50 AM39 °FClear.13 mph81%29.95 "Hg10 mi
5:20 AM39 °FClear.13 mph81%29.95 "Hg10 mi
4:20 AM39 °FClear.12 mph81%29.95 "Hg10 mi
3:50 AM39 °FClear.12 mph81%29.95 "Hg10 mi
2:50 AM39 °FClear.10 mph81%29.98 "Hg10 mi
1:50 AM37 °FClear.9 mph87%29.98 "Hg10 mi
1:20 AM37 °FClear.9 mph93%29.98 "Hg10 mi
12:50 AM37 °FClear.8 mph93%29.98 "Hg10 mi
12:20 AM37 °FClear.8 mph93%29.98 "Hg10 mi
11:50 PM
Thu, Apr 28
39 °FClear.9 mph87%29.98 "Hg10 mi
11:20 PM39 °FClear.9 mph93%29.98 "Hg10 mi
10:50 PM37 °FClear.6 mph100%29.98 "Hg10 mi
10:20 PM39 °FPassing clouds.7 mph93%29.98 "HgN/A
9:50 PM39 °FPassing clouds.3 mph93%29.98 "HgN/A
9:20 PM39 °FScattered clouds.9 mph100%29.98 "HgN/A
8:50 PM39 °FScattered showers. Scattered clouds.2 mph100%29.98 "HgN/A
8:20 PM39 °FScattered showers. Scattered clouds.3 mph100%29.98 "HgN/A
Weather by CustomWeather, © 2016

See weather overviewHow to use our weather pages